Regional Weather Roundup
Issued by NWS Portland, ME

Home | Current Version | Previous Version | Text Only | Print | Product List | Glossary On
Versions: 1 2 3 4 5 6 7 8 9 10 11 12 13 14 15 16 17 18 19 20 21 22 23 24 25 26 27 28 29 30 31 32 33 34 35 36 37 38 39 40 41 42 43 44 45 46 47 48 49 50
000
ASUS41 KGYX 302310
RWRGYX
WEATHER ROUNDUP FOR MAINE AND NEW HAMPSHIRE
NATIONAL WEATHER SERVICE GRAY ME
700 PM EDT WED JUL 30 2014

MEZ002-005-006-010-012-015-018-020-021-024-026-027-029-310000-
MAINE

CITY           SKY/WX    TMP DP  RH WIND       PRES   REMARKS
PORTLAND       PTSUNNY   68  61  78 S5        30.01R
SANFORD        SUNNY     70  57  64 CALM      30.01R
BAR HARBOR     CLEAR     64  63  94 E6        30.02R
WISCASSET      PTSUNNY   66  62  87 VRB6      30.02R
ROCKLAND       CLOUDY    61  59  94 E3        30.01S VSB 1/2
FRYEBURG       MOSUNNY   71  61  70 CALM      30.01R
LEWISTONAUBURN CLOUDY    70  63  78 S6        30.01R
AUGUSTA        PTSUNNY   69  61  75 NE5       30.02R
WATERVILLE     SUNNY     68  61  77 CALM      29.97S
BANGOR         CLOUDY    69  58  67 S10       30.01R
GREENVILLE       N/A     63  57  81 CALM      30.00S
MILLINOCKET    CLOUDY    72  61  68 VRB6      29.99S
HOULTON        PTCLDY    69  61  75 CALM      29.99R
PRESQUE ISLE   CLOUDY    68  57  68 W6        30.02R
FRENCHVILLE    MOSUNNY   67  54  63 CALM      30.02S
CARIBOU        CLOUDY    70  58  65 N3        30.00S
$$

NHZ002-005-008-009-011-012-014-310000-
NEW HAMPSHIRE

CITY           SKY/WX    TMP DP  RH WIND       PRES   REMARKS
PORTSMOUTH     MOSUNNY   69  62  80 SE6       30.00R
ROCHESTER      MOSUNNY   71  60  68 SE3       30.00R
NASHUA         MOSUNNY   75  56  51 CALM      30.01R
MANCHESTER     MOSUNNY   75  53  46 SW5       29.99R
CONCORD        CLOUDY    71  56  58 SW3       30.00R
LACONIA          N/A     72  52  49 SW5       30.00R
PLYMOUTH       FAIR      72  55  55 CALM      30.00R
BERLIN         CLOUDY    69  56  62 CALM      30.01R
WHITEFIELD     CLOUDY    70  51  51 CALM      30.01R
JAFFREY        MOSUNNY   70  51  51 CALM      30.03R
LEBANON        SUNNY     71  58  63 S3        29.99R
MT WASHINGTON  PTSUNNY   46  43  87 W10         N/A  VSB 1/2
$$

VTZ005-007-008-310000-
VERMONT

CITY           SKY/WX    TMP DP  RH WIND       PRES   REMARKS
ST JOHNSBURY     N/A     71  52  50 MISG      29.98R
MONTPELIER     SUNNY     69  53  56 S5        30.04R
BURLINGTON     CLOUDY    72  53  51 S6        29.96S
$$

MAZ007-012-024-CTZ003-RIZ002-NYZ038-NYZ072-310000-
SOUTHERN NEW ENGLAND AND NY

CITY           SKY/WX    TMP DP  RH WIND       PRES   REMARKS
BOSTON         MOSUNNY   71  57  61 SE8       30.00R
WORCESTER      SUNNY     71  52  50 W6        30.03R
NANTUCKET      CLEAR     69  61  75 SW6       30.03R
PROVIDENCE     MOSUNNY   74  52  46 SW8       30.02R
HARTFORD       MOSUNNY   77  49  37 W7        29.99R
ALBANY         MOSUNNY   75  52  44 S8        29.99S
NEW YORK CITY  MOSUNNY   76  53  44 S13       30.00R
$$

ANZ081-ANZ082-ANZ150-NHZ014-MEZ023>029-310000-
COASTAL MARINE OBSERVATIONS

STATION/POSITION TIME  TEMP    WIND        PRES    WAVE
                       AIR SEA DIR/SP/G            HT/PER
                 (UTC) (F)     (DEG/KT/KT) (MB)    (FT/S)
MOUNT DESERT ROC 2300   59                 1016.3R
MATINICUS ROCK   2300          100/ 10/ 11 1015.9R
PORTLAND WX BUOY 2300   63 64  220/  4/  6 1016.1R   2/ 9
WELLS            2300   66 59   CALM  /  1 1015.2S
ISLE OF SHOALS   2300   67     140/ 11/ 11 1015.4R
JEFFREYS LEDGE   2200      68                N/A     3/ 8
CASHES LEDGE BUO 2300   69 68  190/  4/  6 1015.6R   3/ 9
$$

.............KEY..............
   WCI - WIND CHILL
   TC  - TEMPERATURE IN CELSIUS
   VSB - VISIBILITY IN MILES
   HX  - HEAT INDEX
   FAIR- INDICATES FEW OR NO CLOUDS BELOW 12,000 FT, WITH NO
         SIGNIFICANT WEATHER AND/OR OBSTRUCTIONS TO VISIBILITY.





USA.gov is the U.S. government's official web portal to all federal, state and local government web resources and services.